TimeEST,TemperatureF,Dew PointF,Humidity,Sea Level PressureIn,VisibilityMPH,Wind Direction,Wind SpeedMPH,Gust SpeedMPH,PrecipitationIn,Events,Conditions,WindDirDegrees,DateUTC
12:53 AM,42.1,34.0,73,30.38,10.0,WSW,3.5,-,N/A,,Mostly Cloudy,240,2013-11-22 05:53:00
1:53 AM,41.0,35.1,79,30.37,10.0,Calm,Calm,-,N/A,,Overcast,0,2013-11-22 06:53:00
2:53 AM,46.9,39.0,74,30.35,10.0,SW,4.6,-,N/A,,Overcast,230,2013-11-22 07:53:00
3:53 AM,50.0,39.9,68,30.32,10.0,SW,4.6,-,N/A,,Overcast,230,2013-11-22 08:53:00
4:25 AM,50.0,41.0,71,30.31,10.0,SW,4.6,-,N/A,,Overcast,230,2013-11-22 09:25:00
4:53 AM,51.1,42.1,71,30.29,10.0,WSW,4.6,-,N/A,,Overcast,240,2013-11-22 09:53:00
5:53 AM,51.1,45.0,80,30.27,10.0,SW,6.9,-,0.00,Rain,Light Rain,220,2013-11-22 10:53:00
6:53 AM,51.1,46.9,86,30.26,10.0,SW,5.8,-,0.00,,Overcast,230,2013-11-22 11:53:00
7:29 AM,51.8,46.4,82,30.25,10.0,WSW,5.8,-,N/A,,Overcast,240,2013-11-22 12:29:00
7:53 AM,52.0,46.9,83,30.25,10.0,Calm,Calm,-,N/A,,Overcast,0,2013-11-22 12:53:00
8:53 AM,52.0,48.0,86,30.23,10.0,Calm,Calm,-,0.01,Rain,Light Rain,0,2013-11-22 13:53:00
9:53 AM,52.0,48.0,86,30.20,9.0,Calm,Calm,-,0.03,Rain,Light Rain,0,2013-11-22 14:53:00
10:53 AM,52.0,48.9,89,30.15,6.0,South,3.5,-,0.01,Rain,Light Rain,180,2013-11-22 15:53:00
11:00 AM,51.8,48.2,88,30.14,6.0,South,4.6,-,0.01,Rain,Light Rain,180,2013-11-22 16:00:00
11:32 AM,51.8,50.0,94,30.12,7.0,South,6.9,-,0.02,Rain,Light Rain,190,2013-11-22 16:32:00
11:53 AM,53.1,50.0,89,30.09,9.0,South,6.9,-,0.02,Rain,Light Rain,190,2013-11-22 16:53:00
12:15 PM,53.6,50.0,88,30.08,10.0,SSW,8.1,-,0.00,,Overcast,210,2013-11-22 17:15:00
12:53 PM,53.1,51.1,93,30.06,2.5,SW,9.2,-,0.02,Rain,Light Rain,220,2013-11-22 17:53:00
1:01 PM,53.6,51.8,94,30.05,3.0,SSW,10.4,-,0.00,Rain,Light Rain,210,2013-11-22 18:01:00
1:09 PM,53.6,51.8,94,30.04,4.0,SW,10.4,-,0.01,Rain,Light Rain,220,2013-11-22 18:09:00
1:16 PM,53.6,51.8,94,30.03,4.0,SSW,12.7,-,0.01,Rain,Light Rain,210,2013-11-22 18:16:00
1:25 PM,53.6,51.8,94,30.03,4.0,SW,12.7,-,0.01,Rain,Light Rain,220,2013-11-22 18:25:00
1:53 PM,54.0,53.1,97,30.01,5.0,SW,12.7,-,0.02,Rain,Light Rain,220,2013-11-22 18:53:00
2:19 PM,53.6,53.6,100,30.00,2.0,SW,6.9,-,0.02,Rain,Light Rain,230,2013-11-22 19:19:00
2:50 PM,55.4,53.6,94,29.99,4.0,WSW,11.5,19.6,0.04,Rain,Light Rain,250,2013-11-22 19:50:00
2:53 PM,55.0,53.1,93,29.99,7.0,WSW,12.7,19.6,0.04,Rain,Light Rain,240,2013-11-22 19:53:00
3:53 PM,54.0,52.0,93,29.97,10.0,West,15.0,23.0,0.00,,Overcast,260,2013-11-22 20:53:00
4:53 PM,53.1,50.0,89,29.96,10.0,West,10.4,18.4,N/A,,Overcast,270,2013-11-22 21:53:00
5:53 PM,53.1,48.9,86,29.95,10.0,West,6.9,-,N/A,,Overcast,280,2013-11-22 22:53:00
6:53 PM,52.0,48.0,86,29.95,10.0,WNW,6.9,-,N/A,,Overcast,290,2013-11-22 23:53:00
7:53 PM,51.1,46.9,86,29.93,10.0,WNW,3.5,-,N/A,,Overcast,300,2013-11-23 00:53:00
8:53 PM,51.1,46.0,83,29.92,10.0,West,5.8,-,N/A,,Overcast,280,2013-11-23 01:53:00
9:53 PM,50.0,46.0,86,29.90,9.0,WSW,3.5,-,0.00,Rain,Light Rain,250,2013-11-23 02:53:00
10:10 PM,50.0,46.4,87,29.89,10.0,Calm,Calm,-,0.00,,Overcast,0,2013-11-23 03:10:00
10:53 PM,50.0,46.0,86,29.86,10.0,WSW,3.5,-,0.00,,Overcast,240,2013-11-23 03:53:00
11:53 PM,48.9,46.9,93,29.84,8.0,SSW,4.6,-,N/A,,Overcast,210,2013-11-23 04:53:00